SL-8 R/B

Satellite information

Favourite Embed

Satellite Type and Status

ROCKET BODYIN ORBIT

Key statistics

Satellite SL-8 R/B at a glance.

Uptime

9707

Days in orbit

Revolutions

≈ 13.7

Per day

Orbit

LEO

Low Earth Orbit

Inclination

82.9

Latest

Satellite identification and parameters

Extended collection of information and parameters for SL-8 R/B.

Object identification

Identified? True

Debris? False

Object name: SL-8 R/B

International designator: 1998-072C

Object number (NORAD): 25569

Object ID (CCSDS): 25569

Country: COMMONWEALTH OF INDEPENDENT STATES (CIS)

Current information (Y/N): Y

RCS size: LARGE

Orbital parameters

Period: 104.777 minutes

Inclination: 82.9441 deg

SMA: 7362.124 km

Apoapsis: 998.704 km

Periapsis: 969.273 km

RAAN: 313.1084 deg

Eccentricy: 0.0019988

Argument of periapsis: 226.4676 deg

Mean anomaly: 251.8434 deg

Mean motion: 13.74352362 rev/day

Mean motion (dot): 0.00000026 rev/day2

B* drag term: 0.000011814 1/REarth

Two-line elements (TLE)

Creation date: July 8, 2025, 2:27 a.m.

Reference frame: TEME

Reference center: EARTH

Epoch: July 7, 2025, 9:26 p.m. UTC

TLE line 0: 0 SL-8 R/B

TLE line 1: 1 25569U 98072C 25188.89348916 .00000026 00000-0 11814-4 0 9992

TLE line 2: 2 25569 82.9441 313.1084 0019988 226.4676 251.8434 13.74352362332433

Live tracking on map

Real-time ground track for satellite SL-8 R/B.

In-orbit conjunctions

A list of the most updated potential collisions computed for object SL-8 R/B.

Target Orbit TCA Probability of collision Miss distance Type
COSMOS 1275 DEB LEO 2024-09-12 03:13:09 0.000223638 772.0 (m) DEBRIS

Associated space launch

Civilian navigation satellite equivalent to the purely military Parus

SL-8 R/B was lifted into orbit during the mission ‘Kosmos-3M | Nadezhda 8’, on board a Kosmos-3M space rocket.

The launch took place on Dec. 10, 1998, 11:57 a.m. from 132/1 (132L).

For more information about the launch, click the button.

Launch to space Kosmos-3M | Nadezhda 8
Kosmos-3M | Nadezhda 8

Agency: N/A

Status: Launch Successful

Launch date: Dec. 10, 1998, 11:57 a.m. UTC

Rocket: Kosmos-3M

Launch pad: 132/1 (132L)

Location: Plesetsk Cosmodrome, Russian Federation

...

Latest news about this satellite

There are no fresh news available about this satellite. Check back as we update our databases every day.


Newsletter sign-up

Weekly statistics, charts and insights to help you stay on top of the space industry.